Overview Statistics Trail Chart Weather Telemetry Raw packets
 

This is the latest recevied weather packets stored in our database for station/object KO4DYK. If no packets are shown the sender has not sent any weather packets the latest 10 day(s).

<< 11 12 13 14 15 16 17 >>
Time Temp. Humidity Pressure Rain* Wind** Luminosity Snow
1788578481 26.11° C 91% 1015.5 hPa 0 mm - 0 W/m² -
1788578177 26.11° C 90% 1015.7 hPa 0 mm - 0 W/m² -
1788577877 26.67° C 90% 1015.6 hPa 0 mm - 0 W/m² -
1788577572 26.67° C 90% 1015.5 hPa 0 mm - 0 W/m² -
1788577268 26.67° C 89% 1015.6 hPa 0 mm - 0 W/m² -
1788576962 27.22° C 88% 1015.6 hPa 0 mm - 0 W/m² -
1788576658 27.22° C 88% 1015.6 hPa 0 mm - 0 W/m² -
1788576354 27.22° C 85% 1015.5 hPa 0 mm - 0 W/m² -
1788576049 27.78° C 85% 1015.6 hPa 0 mm - 0 W/m² -
1788575744 27.78° C 84% 1015.5 hPa 0 mm - 0 W/m² -
1788575444 27.78° C 83% 1015.5 hPa 0 mm - 0 W/m² -
1788575143 28.33° C 83% 1015.4 hPa 0 mm - 0 W/m² -
1788574839 28.33° C 80% 1015.5 hPa 0 mm - 0 W/m² -
1788574538 28.89° C 79% 1015.3 hPa 0 mm - 0 W/m² -
1788574234 28.89° C 77% 1015.3 hPa 0 mm - 0 W/m² -
1788573933 28.89° C 78% 1015.5 hPa 0 mm - 0 W/m² -
1788573629 29.44° C 77% 1015.5 hPa 0 mm - 0 W/m² -
1788573326 29.44° C 77% 1015.5 hPa 0 mm - 0 W/m² -
1788573021 29.44° C 75% 1015.5 hPa 0 mm - 0 W/m² -
1788572716 30° C 76% 1015.4 hPa 0 mm - 0 W/m² -
1788572412 30° C 75% 1015.4 hPa 0 mm - 0 W/m² -
1788572108 30° C 73% 1015.4 hPa 0 mm - 0 W/m² -
1788571803 29.44° C 74% 1015.4 hPa 0 mm - 0 W/m² -
1788571498 29.44° C 77% 1015.4 hPa 0 mm - 0 W/m² -
1788571194 30° C 77% 1015.3 hPa 0 mm - 0 W/m² -

* Rain latest hour (hover to see other rain measurements)
** Current wind speed in m/s (hover to see current wind gust speed)